START_TIME,STEP,MOV.,M29,t_acc.,H22,t_acc.,H26,t_acc.,H30,t_acc.
1979-07-16 06:00:32.080 ,1,1,0.,24.0,0.,24.0,0.,24.0,0.,24.0
1979-07-16 06:00:56.080 ,2,1,0.,24.0,0.,24.0,0.,24.0,0.,24.0
1979-07-16 06:01:20.080 ,6,1,0.,24.0,0.,24.0,0.,24.0,0.,24.0
1979-07-16 06:01:44.080 ,5,1,0.,24.0,0.,24.0,0.,24.0,0.,24.0
1979-07-16 06:02:08.080 ,1,1,0.,24.0,0.,24.0,0.,24.0,0.,24.0
1979-07-16 06:02:32.080 ,2,1,0.,24.0,0.,24.0,0.,24.0,0.,24.0
1979-07-16 06:02:56.080 ,6,1,0.,24.0,0.,24.0,0.,24.0,0.,24.0
1979-07-16 06:03:20.080 ,5,1,0.,24.0,0.,24.0,0.,24.0,0.,24.0
1979-07-16 06:03:44.080 ,1,1,0.,24.0,0.,24.0,0.,24.0,0.,24.0
1979-07-16 06:04:08.080 ,2,1,0.,24.0,0.,24.0,0.,24.0,0.,24.0
1979-07-16 06:04:32.080 ,6,1,0.,24.0,0.,24.0,0.,24.0,0.,24.0
1979-07-16 06:04:56.080 ,5,1,0.,24.0,0.,24.0,0.,24.0,0.,24.0
1979-07-16 06:05:20.080 ,1,1,0.,24.0,0.,24.0,0.,24.0,0.,24.0
1979-07-16 06:05:44.080 ,0,0,0.,24.0,0.,24.0,0.,24.0,0.,24.0
1979-07-16 06:06:08.080 ,0,0,0.,24.0,0.,24.0,0.,24.0,0.,24.0
1979-07-16 06:06:32.080 ,5,1,0.,24.0,0.,24.0,0.,24.0,0.,24.0
1979-07-16 06:06:56.080 ,5,0,0.,24.0,0.,24.0,0.,24.0,0.,24.0
1979-07-16 06:07:20.080 ,4,1,0.,24.0,0.,24.0,0.,24.0,0.,24.0
1979-07-16 06:07:44.080 ,4,0,0.,24.0,0.,24.0,0.,24.0,0.,24.0
1979-07-16 06:08:08.080 ,3,1,0.,24.0,0.,24.0,0.,24.0,0.,24.0
1979-07-16 06:08:32.080 ,3,0,0.,24.0,0.,24.0,0.,24.0,0.,24.0
1979-07-16 06:08:56.080 ,2,1,0.,24.0,0.,24.0,0.,24.0,0.,24.0
1979-07-16 06:09:20.080 ,2,0,0.,24.0,0.,24.0,0.,24.0,0.,24.0
1979-07-16 06:09:44.080 ,1,1,0.,24.0,0.,24.0,0.,24.0,0.,24.0
1979-07-16 06:10:08.080 ,1,0,0.,24.0,0.,24.0,0.,24.0,0.,24.0
1979-07-16 06:10:32.080 ,0,1,0.,24.0,0.,24.0,0.,24.0,0.,24.0
1979-07-16 06:10:56.080 ,0,0,0.,24.0,0.,24.0,0.,24.0,0.,24.0
1979-07-16 06:11:20.080 ,0,1,0.,24.0,0.,24.0,0.,24.0,0.,24.0
1979-07-16 06:11:44.080 ,0,0,0.,24.0,0.,24.0,0.,24.0,0.,24.0
1979-07-16 06:12:08.080 ,1,1,0.,24.0,0.,24.0,0.,24.0,0.,24.0
1979-07-16 06:12:32.080 ,1,0,0.,24.0,0.,24.0,0.,24.0,0.,24.0
1979-07-16 06:12:56.080 ,2,1,0.,24.0,0.,24.0,0.,24.0,0.,24.0
1979-07-16 06:13:20.080 ,2,0,0.,24.0,0.,24.0,0.,24.0,0.,24.0
1979-07-16 06:13:44.080 ,3,1,0.,24.0,0.,24.0,0.,24.0,0.,24.0
1979-07-16 06:14:08.080 ,3,0,0.,24.0,0.,24.0,0.,24.0,0.,24.0
1979-07-16 06:14:32.080 ,4,1,0.,24.0,0.,24.0,0.,24.0,0.,24.0
1979-07-16 06:14:56.080 ,4,0,0.,24.0,0.,24.0,0.,24.0,0.,24.0
1979-07-16 06:15:20.080 ,5,1,0.,24.0,0.,24.0,0.,24.0,0.,24.0
1979-07-16 06:15:44.080 ,5,0,0.,24.0,0.,24.0,0.,24.0,0.,24.0
1979-07-16 06:16:08.080 ,6,1,0.,24.0,0.,24.0,0.,24.0,0.,24.0
1979-07-16 06:16:32.080 ,6,0,0.,24.0,0.,24.0,0.,24.0,0.,24.0
1979-07-16 06:16:56.080 ,7,1,0.,24.0,0.,24.0,0.,24.0,0.,24.0
1979-07-16 06:17:20.080 ,7,0,0.,24.0,0.,24.0,0.,24.0,0.,24.0
1979-07-16 06:17:44.080 ,7,1,0.,24.0,0.,24.0,0.,24.0,0.,24.0
1979-07-16 06:18:08.080 ,7,0,0.,24.0,0.,24.0,0.,24.0,0.,24.0
1979-07-16 06:18:32.080 ,6,1,0.,24.0,0.,24.0,0.,24.0,0.,24.0
1979-07-16 06:18:56.080 ,6,0,0.,24.0,0.,24.0,0.,24.0,0.,24.0
1979-07-16 06:19:20.080 ,5,1,0.,24.0,0.,24.0,0.,24.0,0.,24.0
1979-07-16 06:19:44.080 ,5,0,0.,24.0,0.,24.0,0.,24.0,0.,24.0
1979-07-16 06:20:08.080 ,4,1,0.,24.0,0.,24.0,0.,24.0,0.,24.0
1979-07-16 06:20:32.080 ,4,0,0.,24.0,0.,24.0,0.,24.0,0.,24.0
1979-07-16 06:20:56.080 ,3,1,0.,24.0,0.,24.0,0.,24.0,0.,24.0
1979-07-16 06:21:20.080 ,3,0,0.,24.0,0.,24.0,0.,24.0,0.,24.0
1979-07-16 06:21:44.080 ,2,1,0.,24.0,0.,24.0,0.,24.0,0.,24.0
1979-07-16 06:22:08.080 ,2,0,0.,24.0,0.,24.0,0.,24.0,0.,24.0
1979-07-16 06:22:32.080 ,1,1,0.,24.0,0.,24.0,0.,24.0,0.,24.0
1979-07-16 06:22:56.080 ,1,0,0.,24.0,0.,24.0,0.,24.0,0.,24.0
1979-07-16 06:23:20.080 ,0,1,0.,24.0,0.,24.0,0.,24.0,0.,24.0
1979-07-16 06:23:44.080 ,0,0,0.,24.0,0.,24.0,0.,24.0,0.,24.0
1979-07-16 06:24:08.080 ,0,1,0.,24.0,0.,24.0,0.,24.0,0.,24.0
1979-07-16 06:24:32.080 ,0,0,0.,24.0,0.,24.0,0.,24.0,0.,24.0
1979-07-16 06:24:56.080 ,1,1,0.,24.0,0.,24.0,0.,24.0,0.,24.0
1979-07-16 06:25:20.080 ,1,0,0.,24.0,0.,24.0,0.,24.0,0.,24.0
1979-07-16 06:25:44.080 ,2,1,0.,24.0,0.,24.0,0.,24.0,0.,24.0
1979-07-16 06:26:08.080 ,2,0,0.,24.0,0.,24.0,0.,24.0,0.,24.0
1979-07-16 06:26:32.080 ,3,1,0.,24.0,0.,24.0,0.,24.0,0.,24.0
1979-07-16 06:26:56.080 ,3,0,0.,24.0,0.,24.0,0.,24.0,0.,24.0
1979-07-16 06:27:20.080 ,4,1,0.,24.0,0.,24.0,0.,24.0,0.,24.0
1979-07-16 06:27:44.080 ,4,0,0.,24.0,0.,24.0,0.,24.0,0.,24.0
1979-07-16 06:28:08.080 ,5,1,0.,24.0,0.,24.0,0.,24.0,0.,24.0
1979-07-16 06:28:32.080 ,5,0,0.,24.0,0.,24.0,0.,24.0,0.,24.0
1979-07-16 06:28:56.080 ,6,1,0.,24.0,0.,24.0,0.,24.0,0.,24.0
1979-07-16 06:29:20.080 ,6,0,0.,24.0,0.,24.0,0.,24.0,0.,24.0
1979-07-16 06:29:44.080 ,7,1,0.,24.0,0.,24.0,0.,24.0,0.,24.0
1979-07-16 06:30:08.080 ,7,0,0.,24.0,0.,24.0,0.,24.0,0.,24.0
1979-07-16 06:30:32.080 ,7,1,0.,24.0,0.,24.0,0.,24.0,0.,24.0
1979-07-16 06:30:56.080 ,7,0,0.,24.0,0.,24.0,0.,24.0,0.,24.0
1979-07-16 06:31:20.080 ,6,1,0.,24.0,0.,24.0,0.,24.0,0.,24.0
1979-07-16 06:31:44.080 ,6,0,0.,24.0,0.,24.0,0.,24.0,0.,24.0
1979-07-16 06:32:08.080 ,5,1,0.,24.0,0.,24.0,0.,24.0,0.,24.0
1979-07-16 06:32:32.080 ,5,0,0.,24.0,0.,24.0,0.,24.0,0.,24.0
1979-07-16 06:32:56.080 ,4,1,0.,24.0,0.,24.0,0.,24.0,0.,24.0
1979-07-16 06:33:20.080 ,4,0,0.,24.0,0.,24.0,0.,24.0,0.,24.0
1979-07-16 06:33:44.080 ,3,1,0.,24.0,0.,24.0,0.,24.0,0.,24.0
1979-07-16 06:34:08.080 ,3,0,0.,24.0,0.,24.0,0.,24.0,0.,24.0
1979-07-16 06:34:32.080 ,2,1,0.,24.0,0.,24.0,0.,24.0,0.,24.0
1979-07-16 06:34:56.080 ,2,0,0.,24.0,0.,24.0,0.,24.0,0.,24.0
1979-07-16 06:35:20.080 ,1,1,0.,24.0,0.,24.0,0.,24.0,0.,24.0
1979-07-16 06:35:44.080 ,1,0,0.,24.0,0.,24.0,0.,24.0,0.,24.0
1979-07-16 06:36:08.080 ,0,1,0.,24.0,0.,24.0,0.,24.0,0.,24.0
1979-07-16 06:36:32.080 ,0,0,0.,24.0,0.,24.0,0.,24.0,0.,24.0
1979-07-16 06:36:56.080 ,0,1,0.,24.0,0.,24.0,0.,24.0,0.,24.0
1979-07-16 06:37:20.080 ,0,0,0.,24.0,0.,24.0,0.,24.0,0.,24.0
1979-07-16 06:37:44.080 ,1,1,0.,24.0,0.,24.0,0.,24.0,0.,24.0
1979-07-16 06:38:08.080 ,1,0,0.,24.0,0.,24.0,0.,24.0,0.,24.0
1979-07-16 06:38:32.080 ,2,1,0.,24.0,0.,24.0,0.,24.0,0.,24.0
1979-07-16 06:38:56.080 ,2,0,0.,24.0,0.,24.0,0.,24.0,0.,24.0
1979-07-16 06:39:20.080 ,3,1,0.,24.0,0.,24.0,0.,24.0,0.,24.0
1979-07-16 06:39:44.080 ,3,0,0.,24.0,0.,24.0,0.,24.0,0.,24.0
1979-07-16 06:40:08.080 ,4,1,0.,24.0,0.,24.0,0.,24.0,0.,24.0
1979-07-16 06:40:32.080 ,4,0,0.,24.0,0.,24.0,0.,24.0,0.,24.0
1979-07-16 06:41:44.080 ,0,0,0.,24.0,0.,24.0,0.,24.0,0.,24.0
1979-07-16 06:42:08.080 ,0,0,0.,24.0,0.,24.0,0.,24.0,0.,24.0
1979-07-16 06:42:08.080 ,0,0,0.,24.0,0.,24.0,0.,24.0,0.,24.0
1979-07-16 06:42:32.080 ,7,0,0.,24.0,0.,24.0,0.,24.0,0.,24.0
1979-07-16 06:42:56.080 ,7,0,,0,,0,,0,,0
1979-07-16 06:43:09.280 ,7,0,,0,,0,,0,,0
1979-07-16 06:43:20.080 ,5,1,0.,24.0,0.,24.0,0.,24.0,0.,24.0
1979-07-16 06:43:44.080 ,1,1,0.,24.0,0.,24.0,0.,24.0,0.,24.0
1979-07-16 06:44:08.080 ,2,1,0.,24.0,0.,24.0,0.,24.0,0.,24.0
1979-07-16 06:44:32.080 ,6,1,0.,24.0,0.,24.0,0.,24.0,0.,24.0
1979-07-16 06:44:56.080 ,5,1,0.,24.0,0.,24.0,0.,24.0,0.,24.0
1979-07-16 06:45:20.080 ,1,1,0.,24.0,0.,24.0,0.,24.0,0.,24.0
1979-07-16 06:45:44.080 ,2,1,0.,24.0,0.,24.0,0.,24.0,0.,24.0
1979-07-16 06:46:08.080 ,6,1,0.,24.0,0.,24.0,0.,24.0,0.,24.0
1979-07-16 06:46:32.080 ,5,1,0.,24.0,0.,24.0,0.,24.0,0.,24.0
1979-07-16 06:46:56.080 ,1,1,0.,24.0,0.,24.0,0.,24.0,0.,24.0
1979-07-16 06:47:20.080 ,2,1,0.,24.0,0.,24.0,0.,24.0,0.,24.0
1979-07-16 06:47:44.080 ,6,1,0.,24.0,0.,24.0,0.,24.0,0.,24.0
1979-07-16 06:48:08.080 ,5,1,0.,24.0,0.,24.0,0.,24.0,0.,24.0
1979-07-16 06:48:32.080 ,1,1,0.,24.0,0.,24.0,0.,24.0,0.,24.0
1979-07-16 06:48:56.080 ,2,1,0.,24.0,0.,24.0,0.,24.0,0.,24.0
1979-07-16 06:49:20.080 ,6,1,0.,24.0,0.,24.0,0.,24.0,0.,24.0
1979-07-16 06:50:32.080 ,0,0,0.,24.0,0.,24.0,0.,24.0,0.,24.0
1979-07-16 06:50:56.080 ,6,1,0.,24.0,0.,24.0,0.,24.0,0.,24.0
1979-07-16 06:51:20.080 ,5,1,0.,24.0,0.,24.0,0.,24.0,0.,24.0
1979-07-16 06:51:44.080 ,1,1,0.,24.0,0.,24.0,0.,24.0,0.,24.0
1979-07-16 06:52:08.080 ,2,1,0.,24.0,0.,24.0,0.,24.0,0.,24.0
1979-07-16 06:52:32.080 ,6,1,0.,24.0,0.,24.0,0.,24.0,0.,24.0
1979-07-16 06:52:56.080 ,5,1,0.,24.0,0.,24.0,0.,24.0,0.,24.0
1979-07-16 06:53:20.080 ,1,1,0.,24.0,0.,24.0,0.,24.0,0.,24.0
1979-07-16 06:53:44.080 ,0,0,0.,24.0,0.,24.0,0.,24.0,0.,24.0
1979-07-16 06:54:08.080 ,0,0,0.,24.0,0.,24.0,0.,24.0,0.,24.0
1979-07-16 06:54:32.080 ,5,1,0.,24.0,0.,24.0,0.,24.0,0.,24.0
1979-07-16 06:54:56.080 ,5,0,0.,24.0,0.,24.0,0.,24.0,0.,24.0
1979-07-16 06:55:20.080 ,4,1,0.,24.0,0.,24.0,0.,24.0,0.,24.0
1979-07-16 06:55:44.080 ,4,0,0.,24.0,0.,24.0,0.,24.0,0.,24.0
1979-07-16 06:56:08.080 ,3,1,0.,24.0,0.,24.0,0.,24.0,0.,24.0
1979-07-16 06:56:32.080 ,3,0,0.,24.0,0.,24.0,0.,24.0,0.,24.0
1979-07-16 06:56:56.080 ,2,1,0.,24.0,0.,24.0,0.,24.0,0.,24.0
1979-07-16 06:57:20.080 ,2,0,0.,24.0,0.,24.0,0.,24.0,0.,24.0
1979-07-16 06:57:44.080 ,1,1,0.,24.0,0.,24.0,0.,24.0,0.,24.0
1979-07-16 06:58:08.080 ,1,0,0.,24.0,0.,24.0,0.,24.0,0.,24.0
1979-07-16 06:58:32.080 ,0,1,0.,24.0,0.,24.0,0.,24.0,0.,24.0
1979-07-16 06:58:56.080 ,0,0,0.,24.0,0.,24.0,0.,24.0,0.,24.0
1979-07-16 06:59:20.080 ,0,1,0.,24.0,0.,24.0,0.,24.0,0.,24.0
1979-07-16 06:59:44.080 ,0,0,0.,24.0,0.,24.0,0.,24.0,0.,24.0
1979-07-16 07:00:08.080 ,1,1,0.,24.0,0.,24.0,0.,24.0,0.,24.0
1979-07-16 07:00:32.080 ,1,0,0.,24.0,0.,24.0,0.,24.0,0.,24.0
1979-07-16 07:00:56.080 ,2,1,0.,24.0,0.,24.0,0.,24.0,0.,24.0
1979-07-16 07:01:20.080 ,2,0,0.,24.0,0.,24.0,0.,24.0,0.,24.0
1979-07-16 07:01:44.080 ,3,1,0.,24.0,0.,24.0,0.,24.0,0.,24.0
1979-07-16 07:02:08.080 ,3,0,0.,24.0,0.,24.0,0.,24.0,0.,24.0
1979-07-16 07:02:32.080 ,4,1,0.,24.0,0.,24.0,0.,24.0,0.,24.0
1979-07-16 07:02:56.080 ,4,0,0.,24.0,0.,24.0,0.,24.0,0.,24.0
1979-07-16 07:03:20.080 ,5,1,0.,24.0,0.,24.0,0.,24.0,0.,24.0
1979-07-16 07:03:44.080 ,5,0,0.,24.0,0.,24.0,0.,24.0,0.,24.0
1979-07-16 07:04:08.080 ,6,1,0.,24.0,0.,24.0,0.,24.0,0.,24.0
1979-07-16 07:04:32.080 ,6,0,0.,24.0,0.,24.0,0.,24.0,0.,24.0
1979-07-16 07:04:56.080 ,7,1,0.,24.0,0.,24.0,0.,24.0,0.,24.0
1979-07-16 07:05:20.080 ,7,0,0.,24.0,0.,24.0,0.,24.0,0.,24.0
1979-07-16 07:05:44.080 ,7,1,0.,24.0,0.,24.0,0.,24.0,0.,24.0
1979-07-16 07:06:08.080 ,7,0,0.,24.0,0.,24.0,0.,24.0,0.,24.0
1979-07-16 07:06:32.080 ,6,1,0.,24.0,0.,24.0,0.,24.0,0.,24.0
1979-07-16 07:06:56.080 ,6,0,0.,24.0,0.,24.0,0.,24.0,0.,24.0
1979-07-16 07:07:20.080 ,5,1,0.,24.0,0.,24.0,0.,24.0,0.,24.0
1979-07-16 07:07:44.080 ,5,0,0.,24.0,0.,24.0,0.,24.0,0.,24.0
1979-07-16 07:08:08.080 ,4,1,0.,24.0,0.,24.0,0.,24.0,0.,24.0
1979-07-16 07:08:32.080 ,4,0,0.,24.0,0.,24.0,0.,24.0,0.,24.0
1979-07-16 07:08:56.080 ,3,1,0.,24.0,0.,24.0,0.,24.0,0.,24.0
1979-07-16 07:09:20.080 ,3,0,0.,24.0,0.,24.0,0.,24.0,0.,24.0
1979-07-16 07:09:44.080 ,2,1,0.,24.0,0.,24.0,0.,24.0,0.,24.0
1979-07-16 07:10:08.080 ,2,0,0.,24.0,0.,24.0,0.,24.0,0.,24.0
1979-07-16 07:10:32.080 ,1,1,0.,24.0,0.,24.0,0.,24.0,0.,24.0
1979-07-16 07:10:56.080 ,1,0,0.,24.0,0.,24.0,0.,24.0,0.,24.0
1979-07-16 07:11:20.080 ,0,1,0.,24.0,0.,24.0,0.,24.0,0.,24.0
1979-07-16 07:11:44.080 ,0,0,0.,24.0,0.,24.0,0.,24.0,0.,24.0
1979-07-16 07:12:08.080 ,0,1,0.,24.0,0.,24.0,0.,24.0,0.,24.0
1979-07-16 07:12:32.080 ,0,0,0.,24.0,0.,24.0,0.,24.0,0.,24.0
1979-07-16 07:12:56.080 ,1,1,0.,24.0,0.,24.0,0.,24.0,0.,24.0
1979-07-16 07:13:20.080 ,1,0,0.,24.0,0.,24.0,0.,24.0,0.,24.0
1979-07-16 07:13:44.080 ,2,1,0.,24.0,0.,24.0,0.,24.0,0.,24.0
1979-07-16 07:14:08.080 ,2,0,0.,24.0,0.,24.0,0.,24.0,0.,24.0
1979-07-16 07:14:32.080 ,3,1,0.,24.0,0.,24.0,0.,24.0,0.,24.0
1979-07-16 07:14:56.080 ,3,0,0.,24.0,0.,24.0,0.,24.0,0.,24.0
1979-07-16 07:15:20.080 ,4,1,0.,24.0,0.,24.0,0.,24.0,0.,24.0
1979-07-16 07:15:44.080 ,4,0,0.,24.0,0.,24.0,0.,24.0,0.,24.0
1979-07-16 07:16:08.080 ,5,1,0.,24.0,0.,24.0,0.,24.0,0.,24.0
1979-07-16 07:16:32.080 ,5,0,0.,24.0,0.,24.0,0.,24.0,0.,24.0
1979-07-16 07:16:56.080 ,6,1,0.,24.0,0.,24.0,0.,24.0,0.,24.0
1979-07-16 07:17:20.080 ,6,0,0.,24.0,0.,24.0,0.,24.0,0.,24.0
1979-07-16 07:17:44.080 ,7,1,0.,24.0,0.,24.0,0.,24.0,0.,24.0
1979-07-16 07:18:08.080 ,7,0,0.,24.0,0.,24.0,0.,24.0,0.,24.0
1979-07-16 07:18:32.080 ,7,1,0.,24.0,0.,24.0,0.,24.0,0.,24.0
1979-07-16 07:18:56.080 ,7,0,0.,24.0,0.,24.0,0.,24.0,0.,24.0
1979-07-16 07:20:08.080 ,0,0,0.,24.0,0.,24.0,0.,24.0,0.,24.0
1979-07-16 07:20:32.080 ,0,0,0.,24.0,0.,24.0,0.,24.0,0.,24.0
1979-07-16 07:20:56.080 ,4,1,0.,24.0,0.,24.0,0.,24.0,0.,24.0
1979-07-16 07:21:20.080 ,4,0,0.,24.0,0.,24.0,0.,24.0,0.,24.0
1979-07-16 07:21:44.080 ,3,1,0.,24.0,0.,24.0,0.,24.0,0.,24.0
1979-07-16 07:22:08.080 ,3,0,0.,24.0,0.,24.0,0.,24.0,0.,24.0
1979-07-16 07:22:32.080 ,2,1,0.,24.0,0.,24.0,0.,24.0,0.,24.0
1979-07-16 07:22:56.080 ,2,0,0.,24.0,0.,24.0,0.,24.0,0.,24.0
1979-07-16 07:23:20.080 ,1,1,0.,24.0,0.,24.0,0.,24.0,0.,24.0
1979-07-16 07:23:44.080 ,1,0,0.,24.0,0.,24.0,0.,24.0,0.,24.0
1979-07-16 07:24:08.080 ,0,1,0.,24.0,0.,24.0,0.,24.0,0.,24.0
1979-07-16 07:24:32.080 ,0,0,0.,24.0,0.,24.0,0.,24.0,0.,24.0
1979-07-16 07:24:56.080 ,0,1,0.,24.0,0.,24.0,0.,24.0,0.,24.0
1979-07-16 07:25:20.080 ,0,0,0.,24.0,0.,24.0,0.,24.0,0.,24.0
1979-07-16 07:25:44.080 ,1,1,0.,24.0,0.,24.0,0.,24.0,0.,24.0
1979-07-16 07:26:08.080 ,1,0,0.,24.0,0.,24.0,0.,24.0,0.,24.0
1979-07-16 07:26:32.080 ,2,1,0.,24.0,0.,24.0,0.,24.0,0.,24.0
1979-07-16 07:26:56.080 ,2,0,0.,24.0,0.,24.0,0.,24.0,0.,24.0
1979-07-16 07:27:20.080 ,3,1,0.,24.0,0.,24.0,0.,24.0,0.,24.0
1979-07-16 07:27:44.080 ,3,0,0.,24.0,0.,24.0,0.,24.0,0.,24.0
1979-07-16 07:28:08.080 ,4,1,0.,24.0,0.,24.0,0.,24.0,0.,24.0
1979-07-16 07:28:32.080 ,4,0,0.,24.0,0.,24.0,0.,24.0,0.,24.0
1979-07-16 07:28:56.080 ,5,1,0.,24.0,0.,24.0,0.,24.0,0.,24.0
1979-07-16 07:29:20.080 ,5,0,0.,24.0,0.,24.0,0.,24.0,0.,24.0
1979-07-16 07:29:44.080 ,6,1,0.,24.0,0.,24.0,0.,24.0,0.,24.0
1979-07-16 07:30:08.080 ,6,0,0.,24.0,0.,24.0,0.,24.0,0.,24.0
1979-07-16 07:30:32.080 ,7,0,0.,24.0,0.,24.0,0.,24.0,0.,24.0
1979-07-16 07:30:56.080 ,7,0,0.,24.0,0.,24.0,0.,24.0,0.,24.0
1979-07-16 07:31:20.080 ,5,1,0.,24.0,0.,24.0,0.,24.0,0.,24.0
1979-07-16 07:31:44.080 ,1,1,0.,24.0,0.,24.0,0.,24.0,0.,24.0
1979-07-16 07:32:08.080 ,2,1,0.,24.0,0.,24.0,0.,24.0,0.,24.0
1979-07-16 07:32:32.080 ,6,1,0.,24.0,0.,24.0,0.,24.0,0.,24.0
1979-07-16 07:32:56.080 ,5,1,0.,24.0,0.,24.0,0.,24.0,0.,24.0
1979-07-16 07:33:20.080 ,1,1,0.,24.0,0.,24.0,0.,24.0,0.,24.0
1979-07-16 07:33:44.080 ,2,1,0.,24.0,0.,24.0,0.,24.0,0.,24.0
1979-07-16 07:34:08.080 ,6,1,0.,24.0,0.,24.0,0.,24.0,0.,24.0
1979-07-16 07:34:32.080 ,5,1,0.,24.0,0.,24.0,0.,24.0,0.,24.0
1979-07-16 07:34:56.080 ,1,1,0.,24.0,0.,24.0,0.,24.0,0.,24.0
1979-07-16 07:35:20.080 ,2,1,0.,24.0,0.,24.0,0.,24.0,0.,24.0
1979-07-16 07:35:44.080 ,6,1,0.,24.0,0.,24.0,0.,24.0,0.,24.0
1979-07-16 07:36:08.080 ,5,1,0.,24.0,0.,24.0,0.,24.0,0.,24.0
1979-07-16 07:36:32.080 ,1,1,0.,24.0,0.,24.0,0.,24.0,0.,24.0
1979-07-16 07:36:56.080 ,2,1,0.,24.0,0.,24.0,0.,24.0,0.,24.0
1979-07-16 07:37:20.080 ,6,1,0.,24.0,0.,24.0,0.,24.0,0.,24.0
1979-07-16 07:37:44.080 ,5,1,0.,24.0,0.,24.0,0.,24.0,0.,24.0
1979-07-16 07:38:08.080 ,1,1,0.,24.0,0.,24.0,0.,24.0,0.,24.0
1979-07-16 07:38:32.080 ,2,1,0.,24.0,0.,24.0,0.,24.0,0.,24.0
1979-07-16 07:38:56.080 ,6,1,0.,24.0,0.,24.0,0.,24.0,0.,24.0
1979-07-16 07:39:20.080 ,5,1,0.,24.0,0.,24.0,0.,24.0,0.,24.0
1979-07-16 07:39:44.080 ,1,1,0.,24.0,0.,24.0,0.,24.0,0.,24.0
1979-07-16 07:40:08.080 ,2,1,0.,24.0,0.,24.0,0.,24.0,0.,24.0
1979-07-16 07:40:32.080 ,6,1,0.,24.0,0.,24.0,0.,24.0,0.,24.0
1979-07-16 07:40:56.080 ,5,1,0.,24.0,0.,24.0,0.,24.0,0.,24.0
1979-07-16 07:41:20.080 ,1,1,0.,24.0,0.,24.0,0.,24.0,0.,24.0
1979-07-16 07:41:44.080 ,0,0,0.,24.0,0.,24.0,0.,24.0,0.,24.0
1979-07-16 07:42:08.080 ,0,0,0.,24.0,0.,24.0,0.,24.0,0.,24.0
1979-07-16 07:42:32.080 ,5,1,0.,24.0,0.,24.0,0.,24.0,0.,24.0
1979-07-16 07:42:56.080 ,5,0,0.,24.0,0.,24.0,0.,24.0,0.,24.0
1979-07-16 07:43:20.080 ,4,1,0.,24.0,0.,24.0,0.,24.0,0.,24.0
1979-07-16 07:43:44.080 ,4,0,0.,24.0,0.,24.0,0.,24.0,0.,24.0
1979-07-16 07:44:08.080 ,3,1,0.,24.0,0.,24.0,0.,24.0,0.,24.0
1979-07-16 07:44:32.080 ,3,0,0.,24.0,0.,24.0,0.,24.0,0.,24.0
1979-07-16 07:44:56.080 ,2,1,0.,24.0,0.,24.0,0.,24.0,0.,24.0
1979-07-16 07:45:20.080 ,2,0,0.,24.0,0.,24.0,0.,24.0,0.,24.0
1979-07-16 07:45:44.080 ,1,1,0.,24.0,0.,24.0,0.,24.0,0.,24.0
1979-07-16 07:46:08.080 ,1,0,0.,24.0,0.,24.0,0.,24.0,0.,24.0
1979-07-16 07:46:32.080 ,0,1,0.,24.0,0.,24.0,0.,24.0,0.,24.0
1979-07-16 07:46:56.080 ,0,0,0.,24.0,0.,24.0,0.,24.0,0.,24.0
1979-07-16 07:47:20.080 ,0,1,0.,24.0,0.,24.0,0.,24.0,0.,24.0
1979-07-16 07:47:44.080 ,0,0,0.,24.0,0.,24.0,0.,24.0,0.,24.0
1979-07-16 07:48:08.080 ,1,1,0.,24.0,0.,24.0,0.,24.0,0.,24.0
1979-07-16 07:48:32.080 ,1,0,0.,24.0,0.,24.0,0.,24.0,0.,24.0
1979-07-16 07:48:56.080 ,2,1,0.,24.0,0.,24.0,0.,24.0,0.,24.0
1979-07-16 07:49:20.080 ,2,0,0.,24.0,0.,24.0,0.,24.0,0.,24.0
1979-07-16 07:49:44.080 ,3,1,0.,24.0,0.,24.0,0.,24.0,0.,24.0
1979-07-16 07:50:08.080 ,3,0,0.,24.0,0.,24.0,0.,24.0,0.,24.0
1979-07-16 07:50:32.080 ,4,1,0.,24.0,0.,24.0,0.,24.0,0.,24.0
1979-07-16 07:50:56.080 ,4,0,0.,24.0,0.,24.0,0.,24.0,0.,24.0
1979-07-16 07:51:20.080 ,5,1,0.,24.0,0.,24.0,0.,24.0,0.,24.0
1979-07-16 07:51:44.080 ,0,0,0.,24.0,0.,24.0,0.,24.0,0.,24.0
1979-07-16 07:51:44.080 ,5,0,0.,24.0,0.,24.0,0.,24.0,0.,24.0
1979-07-16 07:52:08.080 ,6,1,0.,24.0,0.,24.0,0.,24.0,0.,24.0
1979-07-16 07:52:32.080 ,6,0,0.,24.0,0.,24.0,0.,24.0,0.,24.0
1979-07-16 07:52:56.080 ,7,1,0.,24.0,0.,24.0,0.,24.0,0.,24.0
1979-07-16 07:53:20.080 ,7,0,0.,24.0,0.,24.0,0.,24.0,0.,24.0
1979-07-16 07:53:44.080 ,0,0,0.,24.0,0.,24.0,0.,24.0,0.,24.0
1979-07-16 07:54:08.080 ,0,0,0.,24.0,0.,24.0,0.,24.0,0.,24.0
1979-07-16 07:54:32.080 ,6,1,0.,24.0,0.,24.0,0.,24.0,0.,24.0
1979-07-16 07:54:56.080 ,6,0,0.,24.0,0.,24.0,0.,24.0,0.,24.0
1979-07-16 07:55:20.080 ,5,1,0.,24.0,0.,24.0,0.,24.0,0.,24.0
1979-07-16 07:55:44.080 ,5,0,0.,24.0,0.,24.0,0.,24.0,0.,24.0
1979-07-16 07:56:08.080 ,4,1,0.,24.0,0.,24.0,0.,24.0,0.,24.0
1979-07-16 07:56:32.080 ,4,0,0.,24.0,0.,24.0,0.,24.0,0.,24.0
1979-07-16 07:56:56.080 ,3,1,0.,24.0,0.,24.0,0.,24.0,0.,24.0
1979-07-16 07:57:20.080 ,3,0,0.,24.0,0.,24.0,0.,24.0,0.,24.0
1979-07-16 07:57:44.080 ,2,1,0.,24.0,0.,24.0,0.,24.0,0.,24.0
1979-07-16 07:58:08.080 ,2,0,0.,24.0,0.,24.0,0.,24.0,0.,24.0
1979-07-16 07:58:32.080 ,1,1,0.,24.0,0.,24.0,0.,24.0,0.,24.0
1979-07-16 07:58:56.080 ,1,0,0.,24.0,0.,24.0,0.,24.0,0.,24.0
1979-07-16 07:59:20.080 ,0,1,0.,24.0,0.,24.0,0.,24.0,0.,24.0
1979-07-16 07:59:44.080 ,0,0,0.,24.0,0.,24.0,0.,24.0,0.,24.0
1979-07-16 08:00:08.080 ,0,1,0.,24.0,0.,24.0,0.,24.0,0.,24.0
1979-07-16 08:00:32.080 ,0,0,0.,24.0,0.,24.0,0.,24.0,0.,24.0
1979-07-16 08:00:56.080 ,1,1,0.,24.0,0.,24.0,0.,24.0,0.,24.0
1979-07-16 08:01:20.080 ,1,0,0.,24.0,0.,24.0,0.,24.0,0.,24.0
1979-07-16 08:01:44.080 ,2,1,0.,24.0,0.,24.0,0.,24.0,0.,24.0
1979-07-16 08:02:08.080 ,2,0,0.,24.0,0.,24.0,0.,24.0,0.,24.0
1979-07-16 08:02:32.080 ,3,1,0.,24.0,0.,24.0,0.,24.0,0.,24.0
1979-07-16 08:02:56.080 ,3,0,,0,,0,,0,,0
1979-07-16 08:03:20.080 ,4,1,0.,24.0,0.,24.0,0.,24.0,0.,24.0
1979-07-16 08:03:44.080 ,4,0,0.,24.0,0.,24.0,0.,24.0,0.,24.0
1979-07-16 08:04:08.080 ,5,1,0.,24.0,0.,24.0,0.,24.0,0.,24.0
1979-07-16 08:04:32.080 ,5,0,0.,24.0,0.,24.0,0.,24.0,0.,24.0
1979-07-16 08:04:56.080 ,6,1,0.,24.0,0.,24.0,0.,24.0,0.,24.0
1979-07-16 08:05:20.080 ,6,0,0.,24.0,0.,24.0,0.,24.0,0.,24.0
1979-07-16 08:05:44.080 ,7,1,0.,24.0,0.,24.0,0.,24.0,0.,24.0
1979-07-16 08:06:08.080 ,7,0,0.,24.0,0.,24.0,0.,24.0,0.,24.0
1979-07-16 08:06:32.080 ,7,1,0.,24.0,0.,24.0,0.,24.0,0.,24.0
1979-07-16 08:06:56.080 ,7,0,0.,24.0,0.,24.0,0.,24.0,0.,24.0
1979-07-16 08:07:20.080 ,6,1,0.,24.0,0.,24.0,0.,24.0,0.,24.0
1979-07-16 08:07:44.080 ,6,0,0.,24.0,0.,24.0,0.,24.0,0.,24.0
1979-07-16 08:08:08.080 ,5,1,0.,24.0,0.,24.0,0.,24.0,0.,24.0
1979-07-16 08:08:32.080 ,5,0,0.,24.0,0.,24.0,0.,24.0,0.,24.0
1979-07-16 08:08:56.080 ,4,1,0.,24.0,0.,24.0,0.,24.0,0.,24.0
1979-07-16 08:09:20.080 ,4,0,0.,24.0,0.,24.0,0.,24.0,0.,24.0
1979-07-16 08:09:44.080 ,3,1,0.,24.0,0.,24.0,0.,24.0,0.,24.0
1979-07-16 08:10:08.080 ,3,0,0.,24.0,0.,24.0,0.,24.0,0.,24.0
1979-07-16 08:10:32.080 ,2,1,0.,24.0,0.,24.0,0.,24.0,0.,24.0
1979-07-16 08:10:56.080 ,2,0,0.,24.0,0.,24.0,0.,24.0,0.,24.0
1979-07-16 08:11:20.080 ,1,1,0.,24.0,0.,24.0,0.,24.0,0.,24.0
1979-07-16 08:11:44.080 ,1,0,0.,24.0,0.,24.0,0.,24.0,0.,24.0
1979-07-16 08:12:08.080 ,0,1,0.,24.0,0.,24.0,0.,24.0,0.,24.0
1979-07-16 08:12:32.080 ,0,0,0.,24.0,0.,24.0,0.,24.0,0.,24.0
1979-07-16 08:12:56.080 ,0,1,0.,24.0,0.,24.0,0.,24.0,0.,24.0
1979-07-16 08:13:20.080 ,0,0,0.,24.0,0.,24.0,0.,24.0,0.,24.0
1979-07-16 08:13:44.080 ,1,1,0.,24.0,0.,24.0,0.,24.0,0.,24.0
1979-07-16 08:14:08.080 ,1,0,0.,24.0,0.,24.0,0.,24.0,0.,24.0
1979-07-16 08:14:32.080 ,2,1,0.,24.0,0.,24.0,0.,24.0,0.,24.0
1979-07-16 08:14:56.080 ,2,0,0.,24.0,0.,24.0,0.,24.0,0.,24.0
1979-07-16 08:15:20.080 ,3,1,0.,24.0,0.,24.0,0.,24.0,0.,24.0
1979-07-16 08:15:44.080 ,3,0,0.,24.0,0.,24.0,0.,24.0,0.,24.0
1979-07-16 08:16:08.080 ,4,1,0.,24.0,0.,24.0,0.,24.0,0.,24.0
1979-07-16 08:16:32.080 ,4,0,0.,24.0,0.,24.0,0.,24.0,0.,24.0
1979-07-16 08:16:56.080 ,5,1,0.,24.0,0.,24.0,0.,24.0,0.,24.0
1979-07-16 08:17:20.080 ,5,0,0.,24.0,0.,24.0,0.,24.0,0.,24.0
1979-07-16 08:17:44.080 ,6,1,0.,24.0,0.,24.0,0.,24.0,0.,24.0
1979-07-16 08:18:08.080 ,6,0,0.,24.0,0.,24.0,0.,24.0,0.,24.0
1979-07-16 08:18:32.080 ,7,0,0.,24.0,0.,24.0,0.,24.0,0.,24.0
1979-07-16 08:18:56.080 ,7,0,0.,24.0,0.,24.0,0.,24.0,0.,24.0
1979-07-16 08:19:20.080 ,5,1,0.,24.0,0.,24.0,0.,24.0,0.,24.0
1979-07-16 08:19:44.080 ,1,1,0.,24.0,0.,24.0,0.,24.0,0.,24.0
1979-07-16 08:20:08.080 ,2,1,0.,24.0,0.,24.0,0.,24.0,0.,24.0
1979-07-16 08:20:32.080 ,6,1,0.,24.0,0.,24.0,0.,24.0,0.,24.0
1979-07-16 08:20:56.080 ,5,1,0.,24.0,0.,24.0,0.,24.0,0.,24.0
1979-07-16 08:21:20.080 ,1,1,0.,24.0,0.,24.0,0.,24.0,0.,24.0
1979-07-16 08:21:44.080 ,2,1,0.,24.0,0.,24.0,0.,24.0,0.,24.0
1979-07-16 08:22:08.080 ,6,1,0.,24.0,0.,24.0,0.,24.0,0.,24.0
1979-07-16 08:22:32.080 ,5,1,0.,24.0,0.,24.0,0.,24.0,0.,24.0
1979-07-16 08:22:56.080 ,1,1,0.,24.0,0.,24.0,0.,24.0,0.,24.0
1979-07-16 08:23:20.080 ,2,1,0.,24.0,0.,24.0,0.,24.0,0.,24.0
1979-07-16 08:23:44.080 ,6,1,0.,24.0,0.,24.0,0.,24.0,0.,24.0
1979-07-16 08:24:08.080 ,5,1,0.,24.0,0.,24.0,0.,24.0,0.,24.0
1979-07-16 08:24:32.080 ,1,1,0.,24.0,0.,24.0,0.,24.0,0.,24.0
1979-07-16 08:24:56.080 ,2,1,0.,24.0,0.,24.0,0.,24.0,0.,24.0
1979-07-16 08:25:20.080 ,6,1,0.,24.0,0.,24.0,0.,24.0,0.,24.0
1979-07-16 08:25:44.080 ,5,1,0.,24.0,0.,24.0,0.,24.0,0.,24.0
1979-07-16 08:26:08.080 ,1,1,0.,24.0,0.,24.0,0.,24.0,0.,24.0
1979-07-16 08:26:32.080 ,2,1,0.,24.0,0.,24.0,0.,24.0,0.,24.0
1979-07-16 08:26:56.080 ,6,1,0.,24.0,0.,24.0,0.,24.0,0.,24.0
1979-07-16 08:27:20.080 ,5,1,0.,24.0,0.,24.0,0.,24.0,0.,24.0
1979-07-16 08:27:44.080 ,1,1,0.,24.0,0.,24.0,0.,24.0,0.,24.0
1979-07-16 08:28:08.080 ,2,1,0.,24.0,0.,24.0,0.,24.0,0.,24.0
1979-07-16 08:28:32.080 ,6,1,0.,24.0,0.,24.0,0.,24.0,0.,24.0
1979-07-16 08:28:56.080 ,5,1,0.,24.0,0.,24.0,0.,24.0,0.,24.0
1979-07-16 08:29:20.080 ,1,1,0.,24.0,0.,24.0,0.,24.0,0.,24.0
1979-07-16 08:29:44.080 ,0,0,0.,24.0,0.,24.0,0.,24.0,0.,24.0
1979-07-16 08:30:08.080 ,0,0,0.,24.0,0.,24.0,0.,24.0,0.,24.0
1979-07-16 08:30:32.080 ,5,1,0.,24.0,0.,24.0,0.,24.0,0.,24.0
1979-07-16 08:30:56.080 ,5,0,0.,24.0,0.,24.0,0.,24.0,0.,24.0
1979-07-16 08:31:20.080 ,4,1,0.,24.0,0.,24.0,0.,24.0,0.,24.0
1979-07-16 08:31:44.080 ,4,0,0.,24.0,0.,24.0,0.,24.0,0.,24.0
1979-07-16 08:32:08.080 ,3,0,,0,,0,,0,,0
1979-07-16 08:32:32.080 ,3,0,0.,24.0,0.,24.0,0.,24.0,0.,24.0
1979-07-16 08:32:56.080 ,2,1,0.,24.0,0.,24.0,0.,24.0,0.,24.0
1979-07-16 08:33:20.080 ,2,0,0.,24.0,0.,24.0,0.,24.0,0.,24.0
1979-07-16 08:33:44.080 ,1,1,0.,24.0,0.,24.0,0.,24.0,0.,24.0
1979-07-16 08:34:08.080 ,1,0,0.,24.0,0.,24.0,0.,24.0,0.,24.0
1979-07-16 08:34:32.080 ,0,1,0.,24.0,0.,24.0,0.,24.0,0.,24.0
1979-07-16 08:34:56.080 ,0,0,0.,24.0,0.,24.0,0.,24.0,0.,24.0
1979-07-16 08:35:20.080 ,0,1,0.,24.0,0.,24.0,0.,24.0,0.,24.0
1979-07-16 08:35:44.080 ,0,0,0.,24.0,0.,24.0,0.,24.0,0.,24.0
1979-07-16 08:36:08.080 ,1,1,0.,24.0,0.,24.0,0.,24.0,0.,24.0